{"data":{"norad_id":49769,"epoch":"2026-05-24T10:34:55.891488Z","epoch_age_seconds":123329,"freshness":"FRESH","line1":"1 49769U 21115AX  26144.44092467  .00001093  00000+0  86711-4 0  9997","line2":"2 49769  53.2162 159.1071 0001090  79.6382 280.4734 15.08845883247118","mean_motion":15.08845883,"eccentricity":0.000109,"inclination_deg":53.2162,"raan_deg":159.1071,"arg_perigee_deg":79.6382,"mean_anomaly_deg":280.4734,"bstar":8.6711e-5,"rev_number":24711,"period_min":95.437182566114,"perigee_km":538.97136004269,"apogee_km":540.47945404743,"semimajor_km":6917.8624070451,"source":"CELESTRAK","updated_at":"2026-05-25T13:38:16.841211Z"}}